Weather History for Rensselaer, IN

Change the Weather History Date:

Tuesday, August 13, 2013

  Actual Average (KVPZ) Record (KVPZ)
Temperature  
Mean Temperature 60 °F 71 °F  
Max Temperature 68 °F 81 °F 90 °F (2010)
Min Temperature 51 °F 61 °F 52 °F (2004)
Degree Days  
Heating Degree Days 4 0  
Month to date heating degree days 0  
Since 1 June heating degree days 45  
Since 1 July heating degree days 4  
Cooling Degree Days 0 6  
Month to date cooling degree days 88  
Year to date cooling degree days 539  
Since 1 June cooling degree days 492  
Growing Degree Days 10 (Base 50)    
Moisture  
Dew Point 56 °F    
Average Humidity 79    
Maximum Humidity 100    
Minimum Humidity 49    
Precipitation  
Precipitation 0.01 in 0.13 in 1.28 in (2005)
Month to date precipitation 1.72  
Year to date precipitation 22.95  
Sea Level Pressure  
Sea Level Pressure 30.04 in    
Wind  
Wind Speed 7 mph (North)    
Max Wind Speed 16 mph    
Max Gust Speed 22 mph    
Visibility 9 miles    
Events      
T = Trace of Precipitation, MM = Missing Value Source: NWS Daily Summary

Daily Weather History Graph

Daily Weather History Graph

Search for Another Location

Airport:

Trip Planner

Search our weather history database for the weather conditions in past years. The results will help you decide how hot, cold, wet, or windy it might be!

Date:

Astronomy

Aug. 13, 2013 Rise Set
Actual Time 5:56 AM CDT 7:49 PM CDT
Civil Twilight 5:27 AM CDT 8:19 PM CDT
Nautical Twilight 4:51 AM CDT 8:55 PM CDT
Astronomical Twilight 4:11 AM CDT 9:33 PM CDT
Moon 12:54 PM CDT (8/13) 11:20 PM CDT (8/13)
Length of Visible Light 14h 51m
Length of Day
13h 52m
Waxing Crescent, 42% of the Moon is Illuminated
Aug 13
Waxing Crescent
Aug 14
First Quarter
Aug 20
Full
Aug 28
Last Quarter
Sep 5
New

Hourly Weather History & Observations

Time (CDT) Temp. Dew Point Humidity Pressure Visibility Wind Dir Wind Speed Gust Speed Precip Events Conditions
12:15 AM 68.0 °F 66.2 °F 94% 29.93 in 10.0 mi NNW 5.8 mph - N/A   Scattered Clouds
12:35 AM 66.2 °F 64.4 °F 94% 29.93 in 5.0 mi NNW 4.6 mph - N/A   Clear
12:55 AM 66.2 °F 64.4 °F 94% 29.92 in 4.0 mi NW 5.8 mph - N/A   Clear
1:15 AM 66.2 °F 64.4 °F 94% 29.92 in 2.5 mi NNW 4.6 mph - N/A   Mostly Cloudy
1:35 AM 64.4 °F 64.4 °F 100% 29.92 in 3.0 mi Calm Calm - N/A   Mostly Cloudy
1:55 AM 64.4 °F 64.4 °F 100% 29.91 in 2.5 mi NNW 4.6 mph - N/A   Scattered Clouds
2:15 AM 66.2 °F 64.4 °F 94% 29.92 in 1.2 mi North 6.9 mph - N/A   Mostly Cloudy
2:35 AM 66.2 °F 64.4 °F 94% 29.92 in 1.5 mi North 5.8 mph - N/A   Overcast
2:55 AM 64.4 °F 64.4 °F 100% 29.93 in 2.0 mi North 5.8 mph - N/A   Scattered Clouds
3:15 AM 64.4 °F 64.4 °F 100% 29.93 in 2.0 mi North 4.6 mph - N/A   Scattered Clouds
3:35 AM 64.4 °F 62.6 °F 94% 29.93 in 2.0 mi North 3.5 mph - 0.01 in   Scattered Clouds
3:55 AM 64.4 °F 62.6 °F 94% 29.93 in 2.0 mi North 4.6 mph - 0.01 in   Clear
4:15 AM 64.4 °F 62.6 °F 94% 29.94 in 5.0 mi NNW 5.8 mph - N/A   Clear
4:35 AM 64.4 °F 62.6 °F 94% 29.94 in 10.0 mi North 8.1 mph - N/A   Clear
4:55 AM 62.6 °F 62.6 °F 100% 29.95 in 10.0 mi North 8.1 mph - N/A   Clear
5:15 AM 62.6 °F 60.8 °F 94% 29.96 in 10.0 mi North 10.4 mph - N/A   Clear
5:35 AM 62.6 °F 60.8 °F 94% 29.96 in 10.0 mi North 10.4 mph - N/A   Clear
5:55 AM 62.6 °F 60.8 °F 94% 29.97 in 10.0 mi North 8.1 mph - N/A   Clear
6:15 AM 60.8 °F 59.0 °F 94% 29.99 in 10.0 mi North 5.8 mph - N/A   Clear
6:35 AM 60.8 °F 59.0 °F 94% 30.01 in 10.0 mi North 6.9 mph - N/A   Clear
6:55 AM 60.8 °F 59.0 °F 94% 29.99 in 10.0 mi North 10.4 mph - N/A   Clear
7:15 AM 60.8 °F 59.0 °F 94% 29.99 in 10.0 mi North 11.5 mph - N/A   Clear
7:35 AM 62.6 °F 59.0 °F 88% 30.00 in 10.0 mi North 10.4 mph - N/A   Clear
7:55 AM 62.6 °F 59.0 °F 88% 30.01 in 10.0 mi North 11.5 mph - N/A   Clear
8:15 AM 62.6 °F 59.0 °F 88% 30.03 in 10.0 mi North 10.4 mph 16.1 mph N/A   Clear
8:35 AM 62.6 °F 59.0 °F 88% 30.03 in 10.0 mi North 11.5 mph 18.4 mph N/A   Mostly Cloudy
8:55 AM 64.4 °F 59.0 °F 83% 30.04 in 10.0 mi NNE 12.7 mph 18.4 mph N/A   Overcast
9:15 AM 64.4 °F 59.0 °F 83% 30.04 in 10.0 mi North 16.1 mph 21.9 mph N/A   Mostly Cloudy
9:35 AM 64.4 °F 59.0 °F 83% 30.05 in 10.0 mi North 15.0 mph - N/A   Mostly Cloudy
9:55 AM 64.4 °F 59.0 °F 83% 30.06 in 10.0 mi NNE 15.0 mph 20.7 mph N/A   Mostly Cloudy
10:15 AM 66.2 °F 57.2 °F 73% 30.06 in 10.0 mi NNE 12.7 mph 18.4 mph N/A   Scattered Clouds
10:35 AM 66.2 °F 55.4 °F 68% 30.06 in 10.0 mi North 9.2 mph - N/A   Clear
10:55 AM 68.0 °F 57.2 °F 68% 30.07 in 10.0 mi NNE 12.7 mph - N/A   Scattered Clouds
11:15 AM 68.0 °F 55.4 °F 64% 30.07 in 10.0 mi NNE 12.7 mph - N/A   Mostly Cloudy
11:35 AM 68.0 °F 55.4 °F 64% 30.07 in 10.0 mi North 8.1 mph - N/A   Scattered Clouds
11:55 AM 68.0 °F 55.4 °F 64% 30.08 in 10.0 mi NNW 10.4 mph - N/A   Scattered Clouds
12:15 PM 64.4 °F 53.6 °F 68% 30.08 in 10.0 mi North 8.1 mph 18.4 mph N/A   Mostly Cloudy
12:35 PM 68.0 °F 55.4 °F 64% 30.08 in 10.0 mi North 10.4 mph 17.3 mph N/A   Mostly Cloudy
12:55 PM 68.0 °F 53.6 °F 60% 30.09 in 10.0 mi NNE 12.7 mph 18.4 mph N/A   Mostly Cloudy
1:15 PM 64.4 °F 51.8 °F 64% 30.09 in 10.0 mi North 10.4 mph 19.6 mph N/A   Mostly Cloudy
1:35 PM 68.0 °F 51.8 °F 56% 30.09 in 10.0 mi North 15.0 mph 20.7 mph N/A   Scattered Clouds
1:55 PM 68.0 °F 51.8 °F 56% 30.09 in 10.0 mi NNW 10.4 mph - N/A   Scattered Clouds
2:15 PM 68.0 °F 50.0 °F 52% 30.10 in 10.0 mi North 9.2 mph 20.7 mph N/A   Scattered Clouds
2:35 PM 68.0 °F 48.2 °F 49% 30.10 in 10.0 mi NNE 10.4 mph 18.4 mph N/A   Mostly Cloudy
2:55 PM 68.0 °F 50.0 °F 52% 30.10 in 10.0 mi North 16.1 mph 20.7 mph N/A   Mostly Cloudy
3:15 PM 68.0 °F 50.0 °F 52% 30.09 in 10.0 mi North 11.5 mph 17.3 mph N/A   Scattered Clouds
3:35 PM 68.0 °F 48.2 °F 49% 30.10 in 10.0 mi North 10.4 mph - N/A   Scattered Clouds
3:55 PM 68.0 °F 48.2 °F 49% 30.09 in 10.0 mi North 10.4 mph 19.6 mph N/A   Scattered Clouds
4:15 PM 68.0 °F 50.0 °F 52% 30.09 in 10.0 mi North 10.4 mph - N/A   Scattered Clouds
4:35 PM 66.2 °F 50.0 °F 56% 30.09 in 10.0 mi North 9.2 mph 19.6 mph N/A   Mostly Cloudy
4:55 PM 64.4 °F 51.8 °F 64% 30.09 in 10.0 mi North 15.0 mph 20.7 mph N/A   Overcast
5:15 PM 64.4 °F 50.0 °F 59% 30.09 in 10.0 mi North 13.8 mph 18.4 mph N/A   Mostly Cloudy
5:35 PM 64.4 °F 50.0 °F 59% 30.10 in 10.0 mi North 10.4 mph 20.7 mph N/A   Scattered Clouds
5:55 PM 64.4 °F 50.0 °F 59% 30.10 in 10.0 mi North 13.8 mph 17.3 mph N/A   Clear
6:55 PM 62.6 °F 46.4 °F 55% 30.10 in 10.0 mi North 6.9 mph - N/A   Clear
7:15 PM 60.8 °F 46.4 °F 59% 30.10 in 10.0 mi North 6.9 mph - N/A   Clear
7:35 PM 59.0 °F 48.2 °F 67% 30.10 in 10.0 mi North 4.6 mph - N/A   Clear
7:55 PM 59.0 °F 50.0 °F 72% 30.10 in 10.0 mi North 5.8 mph - N/A   Clear
8:15 PM 55.4 °F 50.0 °F 82% 30.10 in 10.0 mi North 5.8 mph - N/A   Clear
8:35 PM 55.4 °F 50.0 °F 82% 30.11 in 10.0 mi North 3.5 mph - N/A   Clear
8:55 PM 53.6 °F 50.0 °F 88% 30.12 in 10.0 mi North 3.5 mph - N/A   Clear
9:15 PM 53.6 °F 50.0 °F 88% 30.13 in 10.0 mi NNW 3.5 mph - N/A   Clear
9:35 PM 53.6 °F 50.0 °F 88% 30.13 in 10.0 mi Calm Calm - N/A   Clear
9:55 PM 53.6 °F 50.0 °F 88% 30.14 in 10.0 mi NNW 3.5 mph - N/A   Clear
10:15 PM 53.6 °F 50.0 °F 88% 30.14 in 10.0 mi North 3.5 mph - N/A   Clear
10:35 PM 53.6 °F 50.0 °F 88% 30.14 in 10.0 mi NNW 3.5 mph - N/A   Clear
10:55 PM 53.6 °F 50.0 °F 88% 30.14 in 10.0 mi North 3.5 mph - N/A   Clear
11:15 PM 53.6 °F 50.0 °F 88% 30.14 in 10.0 mi North 4.6 mph - N/A   Clear
11:35 PM 53.6 °F 50.0 °F 88% 30.15 in 10.0 mi Calm Calm - N/A   Clear
11:55 PM 51.8 °F 50.0 °F 94% 30.15 in 10.0 mi Calm Calm - N/A   Clear